Address 0x4a146c3727f09eecc76e7f13ddb818c324ac1d78

Overview

Balance:
0.00032149622 MATIC
My Name Tag:
Not Available

Txn Hash Method
Block
From
To
Value [Txn Fee]
0x002dde9370108e344489c5c731a09bd2579cdbbb3618401668dfb45d41634b5cTransfer263427712022-05-17 2:20:35199 days 17 hrs ago0x4a146c3727f09eecc76e7f13ddb818c324ac1d78OUT0x87f70751d283d4d4b7cc16586e2e3afcf528ca7b7.049322 MATIC0.000178501268.50006
0x128e9dcd06335f84944be7bc1f687e799636284cb57311f421286e7a90969c1fTransfer262788492022-05-10 21:22:40205 days 22 hrs ago0x4a146c3727f09eecc76e7f13ddb818c324ac1d78OUT0x87f70751d283d4d4b7cc16586e2e3afcf528ca7b9.999821 MATIC0.000178501898.50009
0x8c6faa97a5785a515c5c7b10a14a29f9282b7b2bdef0b87826974c13285adad1Transfer262282042022-05-06 13:58:37210 days 6 hrs ago0x4a146c3727f09eecc76e7f13ddb818c324ac1d78OUT0x87f70751d283d4d4b7cc16586e2e3afcf528ca7b9.95 MATIC0.000178500638.50003
[ Download CSV Export 
Latest 25 internal transaction
Parent Txn Hash Block From To Value
0xc495a318c5f8ad1982e34619afc8aecbb7b5b9614a2b8d387b28c7a6b1467cfa263036652022-05-13 6:42:28203 days 13 hrs ago 0x7f092e65c688a509737fcd8d0998dd12208f52970x4a146c3727f09eecc76e7f13ddb818c324ac1d780.2 MATIC
0x3a3f11c7abcdec9b874bf1a87735435efc0c6442c2679b126c385a1721e765b3263022892022-05-13 3:55:37203 days 16 hrs ago 0x7f092e65c688a509737fcd8d0998dd12208f52970x4a146c3727f09eecc76e7f13ddb818c324ac1d780.2 MATIC
0xc3c8d99d0c31f15f6dea0f461c7b83c97b3fac41fe9fa585a3ddb121905ffb88263011992022-05-13 1:45:34203 days 18 hrs ago 0x7f092e65c688a509737fcd8d0998dd12208f52970x4a146c3727f09eecc76e7f13ddb818c324ac1d780.2 MATIC
0x0a0dced9fcc9501acaa8654f809f95d64c04f21e4fe39c0e8579158307015393262962902022-05-12 14:58:07204 days 5 hrs ago 0x7f092e65c688a509737fcd8d0998dd12208f52970x4a146c3727f09eecc76e7f13ddb818c324ac1d780.2 MATIC
0x13aab439c6acfdae98fbfa2f30df6fed018f0989c2d56583c5e9f109b5fdcfbb262962862022-05-12 14:57:27204 days 5 hrs ago 0x7f092e65c688a509737fcd8d0998dd12208f52970x4a146c3727f09eecc76e7f13ddb818c324ac1d780.2 MATIC
0x1c46a8249c9c876dbc1bbc3754197e34c1dc31e1b65dc3eafc3d8bc2ae6afcf7262962812022-05-12 14:56:37204 days 5 hrs ago 0x7f092e65c688a509737fcd8d0998dd12208f52970x4a146c3727f09eecc76e7f13ddb818c324ac1d780.2 MATIC
0x1a660e0ce22aaab094bdb9703a3ceacc633d0a6f91167a5b814c1932cfb2b10d262954642022-05-12 12:56:14204 days 7 hrs ago 0x7f092e65c688a509737fcd8d0998dd12208f52970x4a146c3727f09eecc76e7f13ddb818c324ac1d780.2 MATIC
0x9319bd6bd3b5208d3a6ff78c28991971f045e6192656a3a543d866008da32011262949642022-05-12 11:42:30204 days 8 hrs ago 0x7f092e65c688a509737fcd8d0998dd12208f52970x4a146c3727f09eecc76e7f13ddb818c324ac1d780.2 MATIC
0x100f859502b765a7b866d6a0b1601d51bcfa7de44b7b6f709e546865f890deda262933482022-05-12 7:34:56204 days 12 hrs ago 0x7f092e65c688a509737fcd8d0998dd12208f52970x4a146c3727f09eecc76e7f13ddb818c324ac1d780.2 MATIC
0x96f6965868cb290b2f347d19acfb5ef591fc8a863fa4e652340d73d38d4084d1262925262022-05-12 5:32:18204 days 14 hrs ago 0x7f092e65c688a509737fcd8d0998dd12208f52970x4a146c3727f09eecc76e7f13ddb818c324ac1d780.2 MATIC
0x8cff411e5a64f5c4e29d4fdc8af25ad0a0a00780f9ce4a78dc9387ff210b2fd3262912422022-05-12 2:20:43204 days 17 hrs ago 0x7f092e65c688a509737fcd8d0998dd12208f52970x4a146c3727f09eecc76e7f13ddb818c324ac1d780.2 MATIC
0xb8fa04fec59462679214573e433061c8f0d7e60d135ccc3fd0587d048c2ded8a262900112022-05-11 23:37:54204 days 20 hrs ago 0x7f092e65c688a509737fcd8d0998dd12208f52970x4a146c3727f09eecc76e7f13ddb818c324ac1d780.2 MATIC
0xc01d56b56a04dd996a32b826f7d89d37b600803bc7c2e6e4aaf3dd2b4ad19377262896532022-05-11 22:54:08204 days 21 hrs ago 0x7f092e65c688a509737fcd8d0998dd12208f52970x4a146c3727f09eecc76e7f13ddb818c324ac1d780.2 MATIC
0x59206eade34b091f8edada740d5c60f583d017b87a2c4fe7d2f36e0ba5e00266262892962022-05-11 22:05:13204 days 22 hrs ago 0x7f092e65c688a509737fcd8d0998dd12208f52970x4a146c3727f09eecc76e7f13ddb818c324ac1d780.2 MATIC
0x0c1ccfb81a3a3cd93707a90feb63976d0919af62dac5cfa26245d448553473fe262889042022-05-11 21:15:47204 days 23 hrs ago 0x7f092e65c688a509737fcd8d0998dd12208f52970x4a146c3727f09eecc76e7f13ddb818c324ac1d780.2 MATIC
0x0bb39736386ee6d32e647ddcc803c1324a3ef98d20f04399265bb8d67362a3af262883952022-05-11 20:12:09205 days 6 mins ago 0x7f092e65c688a509737fcd8d0998dd12208f52970x4a146c3727f09eecc76e7f13ddb818c324ac1d780.2 MATIC
0x369a32ad13e15a91940a93f419fe16562f2653513d5e14f5409fcff8ce79244d262879032022-05-11 19:06:01205 days 1 hr ago 0x7f092e65c688a509737fcd8d0998dd12208f52970x4a146c3727f09eecc76e7f13ddb818c324ac1d780.2 MATIC
0xe06fa93414d3841c49b529fa44327f141d24f27e41f51ed4eaf296f40b9b8bfb262873032022-05-11 17:47:12205 days 2 hrs ago 0x7f092e65c688a509737fcd8d0998dd12208f52970x4a146c3727f09eecc76e7f13ddb818c324ac1d780.2 MATIC
0xa4cda6658dd768b94759514a64ad143cdf6a7e44a888b839bbffb31c4ff5fff5262866762022-05-11 16:29:12205 days 3 hrs ago 0x7f092e65c688a509737fcd8d0998dd12208f52970x4a146c3727f09eecc76e7f13ddb818c324ac1d780.2 MATIC
0x719b2000afb32902aa8c06629ccc9b81d37680797d7ceb2ae364372e777ed720262860012022-05-11 15:03:11205 days 5 hrs ago 0x7f092e65c688a509737fcd8d0998dd12208f52970x4a146c3727f09eecc76e7f13ddb818c324ac1d780.2 MATIC
0xd8ec86cbff04c0e9d07c6896c5a5deff2f361cb583af7ddd14be5c2de1d8764f262852282022-05-11 13:20:49205 days 6 hrs ago 0x7f092e65c688a509737fcd8d0998dd12208f52970x4a146c3727f09eecc76e7f13ddb818c324ac1d780.2 MATIC
0xcaed90f14e3314d25eeb41587e371cba7617e619cc2ad6b97c1414601cc1be17262845892022-05-11 11:55:29205 days 8 hrs ago 0x7f092e65c688a509737fcd8d0998dd12208f52970x4a146c3727f09eecc76e7f13ddb818c324ac1d780.2 MATIC
0x7d79e62ede4e30edd1aab97a8ab8bf1044ec554f5cabcfb7063aea77efaaab69262837672022-05-11 9:48:16205 days 10 hrs ago 0x7f092e65c688a509737fcd8d0998dd12208f52970x4a146c3727f09eecc76e7f13ddb818c324ac1d780.2 MATIC
0x2b85ca2db4d89e02f16b4e642e69610e3c411afc91f58c5b5a47ad1756e99a97262833922022-05-11 8:46:26205 days 11 hrs ago 0x7f092e65c688a509737fcd8d0998dd12208f52970x4a146c3727f09eecc76e7f13ddb818c324ac1d780.2 MATIC
0x32da0d7095b124727e3d7a7f3ef09e63be0d74101df567d42e604263d2fb40a6262830522022-05-11 7:58:40205 days 12 hrs ago 0x7f092e65c688a509737fcd8d0998dd12208f52970x4a146c3727f09eecc76e7f13ddb818c324ac1d780.2 MATIC
[ Download CSV Export 
Loading

Contract Name:
0 MATIC

Compiler Version
0

Optimization Enabled:
0 MATIC

Other Settings:
-NA-
Block Transaction Gas Used Reward
Age Block Fee Address BC Fee Address Voting Power Jailed Incoming
Block Uncle Number Difficulty Gas Used Reward
Loading